• In Netherlands
  • List of Countries
  • For 7 days
  • Water Temperature
  • Satellite Maps
  • Weather Map
  • Weather Widgets
  • user-avatar
    Login

    Hourly Weather Gabrovo

    Today, 16 December, Saturday

    Time Temperature Precipitation Wind Pressure Humidity
    00:00 +5°C° 0 mm 2 mps 695 mmHg 74%
    01:00 +5°C° 0 mm 2 mps 695 mmHg 76%
    02:00 +5°C° 0 mm 2 mps 694 mmHg 77%
    03:00 +5°C° 0 mm 2 mps 694 mmHg 78%
    04:00 +5°C° 0 mm 2 mps 694 mmHg 78%
    05:00 +5°C° 0 mm 2 mps 694 mmHg 79%
    06:00 +5°C° 0 mm 2 mps 694 mmHg 79%
    07:00 +5°C° 0 mm 2 mps 694 mmHg 79%
    08:00 +5°C° 0 mm 2 mps 693 mmHg 79%
    09:00 +7°C° 0 mm 2 mps 694 mmHg 74%
    10:00 +8°C° 0 mm 2 mps 694 mmHg 70%
    11:00 +10°C° 0 mm 2 mps 695 mmHg 65%
    12:00 +10°C° 0 mm 2 mps 695 mmHg 64%
    13:00 +12°C° 0 mm 2 mps 695 mmHg 63%
    14:00 +12°C° 0 mm 2 mps 695 mmHg 62%
    15:00 +10°C° 0 mm 2 mps 695 mmHg 66%
    16:00 +9°C° 0 mm 2 mps 695 mmHg 69%
    17:00 +9°C° 0 mm 2 mps 695 mmHg 73%
    18:00 +8°C° 0.4 mm 2 mps 695 mmHg 77%
    19:00 +8°C° 0.4 mm 2 mps 695 mmHg 81%
    20:00 +8°C° 0.4 mm 2 mps 695 mmHg 85%
    21:00 +7°C° 0.2 mm 2 mps 695 mmHg 87%
    22:00 +7°C° 0.2 mm 2 mps 695 mmHg 89%
    23:00 +7°C° 0.2 mm 2 mps 695 mmHg 91%

    Tomorrow, 17 December, Sunday

    Time Temperature Precipitation Wind Pressure Humidity
    00:00 +6°C° 0.9 mm 2 mps 695 mmHg 91%
    01:00 +6°C° 0.9 mm 2 mps 695 mmHg 92%
    02:00 +6°C° 0.9 mm 2 mps 695 mmHg 92%
    03:00 +6°C° 0.3 mm 2 mps 695 mmHg 89%
    04:00 +4°C° 0.3 mm 3 mps 695 mmHg 86%
    05:00 +4°C° 0.3 mm 3 mps 695 mmHg 84%
    06:00 +5°C° 0.4 mm 2 mps 695 mmHg 83%
    07:00 +4°C° 0.4 mm 2 mps 695 mmHg 83%
    08:00 +4°C° 0.4 mm 2 mps 696 mmHg 82%
    09:00 +4°C° 0.3 mm 2 mps 696 mmHg 80%
    10:00 +4°C° 0.3 mm 2 mps 696 mmHg 79%
    11:00 +5°C° 0.3 mm 2 mps 697 mmHg 77%
    12:00 +5°C° 0.3 mm 2 mps 697 mmHg 77%
    13:00 +5°C° 0.3 mm 2 mps 697 mmHg 76%
    14:00 +5°C° 0.3 mm 2 mps 697 mmHg 76%
    15:00 +4°C° 0.3 mm 2 mps 697 mmHg 78%
    16:00 +4°C° 0.3 mm 2 mps 698 mmHg 80%
    17:00 +3°C° 0.3 mm 2 mps 698 mmHg 83%
    18:00 +3°C° 0.2 mm 2 mps 698 mmHg 83%
    19:00 +3°C° 0.2 mm 2 mps 699 mmHg 83%
    20:00 +2°C° 0.2 mm 2 mps 700 mmHg 83%
    21:00 +2°C° 0 mm 2 mps 700 mmHg 83%
    22:00 +2°C° 0 mm 2 mps 701 mmHg 83%
    23:00 +1°C° 0 mm 2 mps 701 mmHg 83%

    Day after tomorrow, 18 December, Monday

    Time Temperature Precipitation Wind Pressure Humidity
    00:00 +1°C° 0 mm 2 mps 701 mmHg 83%
    01:00 -1°C° 0 mm 2 mps 702 mmHg 82%
    02:00 -1°C° 0 mm 2 mps 702 mmHg 82%
    03:00 +1°C° 0 mm 1 mps 702 mmHg 82%
    04:00 +1°C° 0 mm 1 mps 702 mmHg 82%
    05:00 +1°C° 0 mm 1 mps 702 mmHg 82%
    06:00 +1°C° 0 mm 1 mps 703 mmHg 82%
    07:00 0°C° 0 mm 1 mps 703 mmHg 82%
    08:00 0°C° 0 mm 1 mps 703 mmHg 82%
    09:00 +1°C° 0.1 mm 1 mps 703 mmHg 79%
    10:00 +1°C° 0.1 mm 1 mps 704 mmHg 76%
    11:00 +1°C° 0.1 mm 2 mps 704 mmHg 72%
    12:00 +1°C° 0.2 mm 2 mps 704 mmHg 72%
    13:00 +1°C° 0.2 mm 2 mps 703 mmHg 71%
    14:00 +1°C° 0.2 mm 2 mps 703 mmHg 70%
    15:00 +1°C° 0.1 mm 2 mps 703 mmHg 72%
    16:00 -1°C° 0.1 mm 2 mps 703 mmHg 74%
    17:00 -1°C° 0.1 mm 2 mps 703 mmHg 76%
    18:00 -2°C° 0.1 mm 2 mps 703 mmHg 77%
    19:00 -2°C° 0.1 mm 2 mps 704 mmHg 77%
    20:00 -3°C° 0.1 mm 2 mps 704 mmHg 77%
    21:00 -3°C° 0 mm 2 mps 704 mmHg 78%
    22:00 -4°C° 0 mm 2 mps 704 mmHg 78%
    23:00 -4°C° 0 mm 2 mps 705 mmHg 78%

    19 December, Tuesday

    Time Temperature Precipitation Wind Pressure Humidity
    00:00 -4°C° 0 mm 2 mps 705 mmHg 77%
    01:00 -5°C° 0 mm 2 mps 705 mmHg 76%
    02:00 -5°C° 0 mm 2 mps 705 mmHg 75%
    03:00 -5°C° 0 mm 2 mps 706 mmHg 75%
    04:00 -5°C° 0 mm 2 mps 706 mmHg 74%
    05:00 -5°C° 0 mm 2 mps 706 mmHg 74%
    06:00 -5°C° 0 mm 2 mps 707 mmHg 73%
    07:00 -5°C° 0 mm 2 mps 707 mmHg 73%
    08:00 -5°C° 0 mm 2 mps 708 mmHg 73%
    09:00 -4°C° 0 mm 2 mps 708 mmHg 69%
    10:00 -4°C° 0 mm 3 mps 709 mmHg 66%
    11:00 -2°C° 0 mm 3 mps 709 mmHg 62%
    12:00 -2°C° 0 mm 3 mps 710 mmHg 62%
    13:00 -1°C° 0 mm 3 mps 710 mmHg 61%
    14:00 -1°C° 0 mm 2 mps 710 mmHg 60%
    15:00 -2°C° 0 mm 2 mps 710 mmHg 65%
    16:00 -3°C° 0 mm 2 mps 710 mmHg 69%
    17:00 -1°C° 0 mm 1 mps 710 mmHg 73%
    18:00 -2°C° 0 mm 1 mps 710 mmHg 75%
    19:00 -2°C° 0 mm 1 mps 711 mmHg 77%
    20:00 -3°C° 0 mm 1 mps 711 mmHg 79%
    21:00 -3°C° 0 mm 1 mps 711 mmHg 79%
    22:00 -3°C° 0 mm 1 mps 711 mmHg 79%
    23:00 -3°C° 0 mm 1 mps 712 mmHg 78%

    20 December, Wednesday

    Time Temperature Precipitation Wind Pressure Humidity
    00:00 -3°C° 0 mm 1 mps 712 mmHg 78%
    01:00 -3°C° 0 mm 1 mps 712 mmHg 77%
    02:00 -4°C° 0 mm 1 mps 712 mmHg 77%
    03:00 -4°C° 0 mm 1 mps 712 mmHg 77%
    04:00 -4°C° 0 mm 1 mps 712 mmHg 77%
    05:00 -4°C° 0 mm 1 mps 712 mmHg 77%
    06:00 -4°C° 0 mm 1 mps 712 mmHg 77%
    07:00 -4°C° 0 mm 1 mps 712 mmHg 77%
    08:00 -4°C° 0 mm 1 mps 713 mmHg 77%
    09:00 -3°C° 0 mm 1 mps 713 mmHg 72%
    10:00 -2°C° 0 mm 1 mps 713 mmHg 66%
    11:00 -1°C° 0 mm 1 mps 713 mmHg 61%
    12:00 0°C° 0 mm 1 mps 713 mmHg 59%
    13:00 0°C° 0 mm 1 mps 713 mmHg 57%
    14:00 0°C° 0 mm 1 mps 713 mmHg 56%
    15:00 -1°C° 0 mm 1 mps 713 mmHg 61%
    16:00 -2°C° 0 mm 1 mps 712 mmHg 66%
    17:00 -3°C° 0 mm 1 mps 712 mmHg 71%
    18:00 -3°C° 0 mm 1 mps 712 mmHg 72%
    19:00 -3°C° 0 mm 1 mps 713 mmHg 73%
    20:00 -4°C° 0 mm 1 mps 713 mmHg 73%
    21:00 -4°C° 0 mm 1 mps 713 mmHg 73%
    22:00 -4°C° 0 mm 1 mps 713 mmHg 72%
    23:00 -4°C° 0 mm 1 mps 713 mmHg 71%

    21 December, Thursday

    Time Temperature Precipitation Wind Pressure Humidity
    00:00 -4°C° 0 mm 1 mps 712 mmHg 69%
    01:00 -4°C° 0 mm 1 mps 712 mmHg 67%
    02:00 -4°C° 0 mm 1 mps 712 mmHg 66%
    03:00 -4°C° 0 mm 1 mps 712 mmHg 63%
    04:00 -4°C° 0 mm 1 mps 711 mmHg 61%
    05:00 -4°C° 0 mm 1 mps 711 mmHg 59%
    06:00 -6°C° 0 mm 2 mps 711 mmHg 57%
    07:00 -6°C° 0 mm 2 mps 711 mmHg 55%
    08:00 -6°C° 0 mm 2 mps 711 mmHg 52%
    09:00 -4°C° 0 mm 2 mps 711 mmHg 47%
    10:00 -2°C° 0 mm 2 mps 711 mmHg 41%
    11:00 -1°C° 0 mm 2 mps 711 mmHg 35%
    12:00 +1°C° 0 mm 2 mps 710 mmHg 36%
    13:00 +2°C° 0 mm 2 mps 710 mmHg 36%
    14:00 +2°C° 0 mm 3 mps 709 mmHg 37%
    15:00 +2°C° 0 mm 2 mps 709 mmHg 44%
    16:00 +1°C° 0 mm 2 mps 709 mmHg 51%
    17:00 -2°C° 0 mm 2 mps 708 mmHg 58%
    18:00 -2°C° 0 mm 2 mps 708 mmHg 61%
    19:00 -2°C° 0 mm 2 mps 708 mmHg 65%
    20:00 -2°C° 0 mm 2 mps 708 mmHg 68%
    21:00 -2°C° 0 mm 2 mps 708 mmHg 71%
    22:00 -2°C° 0 mm 2 mps 708 mmHg 74%
    23:00 -2°C° 0 mm 2 mps 708 mmHg 77%
    Show more